This demonstration page uses our WeatherBlox Daily Observations layout. Learn more.

Left ArrowRight Arrow

Hourly Observations for November 20, 2021

Temp ( °F °C ) Dew Point ( °F °C ) Humidity (%) Winds ( mph kmh ) Pressure ( in mb ) Visibility ( mi km ) Precip ( " mm )
12:53 am 00:53 Clear 18 -7.8 16 -8.9 92 92 SW 5 7 30.16 1021 10 16 0.00 0.00
1:53 am 01:53 Clear 19 -7.2 17 -8.3 92 92 W 5 7 30.14 1021 10 16 0.00 0.00
2:53 am 02:53 Clear 19 -7.2 17 -8.3 92 92 WSW 7 11 30.15 1021 10 16 0.00 0.00
3:53 am 03:53 Clear 17 -8.3 15 -9.4 92 92 SW 5 7 30.15 1021 10 16 0.00 0.00
4:53 am 04:53 Clear 20 -6.7 18 -7.8 92 92 WSW 7 11 30.16 1021 10 16 0.00 0.00
5:53 am 05:53 Clear 21 -6.1 19 -7.2 92 92 SW 12 19 30.15 1021 10 16 0.00 0.00
6:53 am 06:53 Clear 20 -6.7 18 -7.8 92 92 WSW 8 13 30.16 1022 10 16 0.00 0.00
7:53 am 07:53 Sunny 23 -5 20 -6.7 88 88 SW 10 17 30.14 1021 10 16 0.00 0.00
8:53 am 08:53 Sunny 27 -2.8 24 -4.4 89 89 SW 16 26 30.15 1021 10 16 0.00 0.00
9:53 am 09:53 Sunny 35 1.7 26 -3.3 70 70 SW 22 35 30.14 1021 10 16 0.00 0.00
10:53 am 10:53 Sunny 39 3.9 24 -4.4 55 55 SW 22 35 30.14 1021 10 16 0.00 0.00
11:53 am 11:53 Sunny 43 6.1 26 -3.3 51 51 WSW 21 33 30.12 1020 10 16 0.00 0.00
12:53 pm 12:53 Sunny 47 8.3 23 -5 39 39 WSW 25 41 30.10 1019 10 16 0.00 0.00
1:53 pm 13:53 Sunny 49 9.4 20 -6.7 32 32 W 26 43 30.11 1020 10 16 0.00 0.00
2:53 pm 14:53 Sunny 47 8.3 19 -7.2 33 33 W 24 39 30.14 1021 10 16 0.00 0.00
3:53 pm 15:53 Sunny 42 5.6 20 -6.7 41 41 WSW 15 24 30.18 1022 10 16 0.00 0.00
4:53 pm 16:53 Clear 40 4.4 20 -6.7 45 45 WSW 16 26 30.22 1023 10 16 0.00 0.00
5:53 pm 17:53 Clear 39 3.9 21 -6.1 48 48 WSW 14 22 30.25 1024 10 16 0.00 0.00
6:53 pm 18:53 Clear 38 3.3 21 -6.1 51 51 WSW 14 22 30.29 1026 10 16 0.00 0.00
7:53 pm 19:53 Clear 34 1.1 21 -6.1 59 59 W 6 9 30.35 1028 10 16 0.00 0.00
8:53 pm 20:53 Clear 30 -1.1 22 -5.6 72 72 NNE 14 22 30.41 1030 10 16 0.00 0.00
9:53 pm 21:53 Clear 27 -2.8 20 -6.7 75 75 NNE 6 9 30.43 1030 10 16 0.00 0.00
10:53 pm 22:53 Clear 26 -3.3 19 -7.2 75 75 NNW 3 6 30.45 1031 10 16 0.00 0.00
11:53 pm 23:53 Mostly Cloudy 25 -3.9 18 -7.8 75 75 ENE 5 7 30.47 1032 10 16 0.00 0.00

Powered by AerisWeather